DW2589 Weather Reports


time (UTC)temp
C
wind
direction
speed
KPH
gust
KPH
rain 1hr
cm
rain 24hr
cm
rain mn
cm
humidity
%
barometer
mb
20260505102147 11 229 3.2 11.3 0.00 0.00 0.00 90 1010.6
20260505101648 11 233 4.8 11.3 0.00 0.00 0.00 90 1010.4
20260505101146 11 233 3.2 11.3 0.00 0.00 0.00 90 1010.5
20260505100650 10 237 4.8 14.5 0.00 0.00 0.00 91 1010.5
20260505100146 10 224 4.8 14.5 0.00 0.00 0.00 91 1010.4
20260505095647 10 194 3.2 9.7 0.00 0.00 0.00 91 1010.4
20260505095146 10 231 3.2 9.7 0.00 0.00 0.00 91 1010.6
20260505094647 10 219 3.2 9.7 0.00 0.00 0.00 91 1010.6
20260505094141 10 250 3.2 9.7 0.00 0.00 0.00 91 1010.6
20260505093642 10 243 3.2 8.0 0.00 0.00 0.00 91 1010.7
20260505093142 10 226 3.2 8.0 0.00 0.00 0.00 91 1010.6
20260505092645 10 235 3.2 8.0 0.00 0.00 0.00 91 1010.6
20260505092141 10 194 3.2 8.0 0.00 0.00 0.00 90 1010.6
20260505091642 10 200 3.2 9.7 0.00 0.00 0.00 90 1010.7
20260505091141 10 127 3.2 9.7 0.00 0.00 0.00 90 1010.8
20260505090643 10 237 4.8 14.5 0.00 0.00 0.00 90 1010.8
20260505090141 10 226 4.8 14.5 0.00 0.00 0.00 90 1010.7
20260505085642 10 230 4.8 9.7 0.00 0.00 0.00 90 1010.7
20260505085139 10 237 3.2 8.0 0.00 0.00 0.00 90 1010.7
20260505084640 10 210 3.2 8.0 0.00 0.00 0.00 89 1010.6
20260505084139 10 212 3.2 12.9 0.00 0.00 0.00 89 1010.7
20260505083640 10 248 3.2 12.9 0.00 0.00 0.00 89 1010.5
20260505083137 10 242 3.2 9.7 0.00 0.00 0.00 89 1010.6
20260505082720 10 227 4.8 9.7 0.00 0.00 0.00 89 1010.6
20260505081638 10 238 3.2 12.9 0.00 0.00 0.00 89 1010.7
20260505081136 10 206 3.2 12.9 0.00 0.00 0.00 89 1010.7
20260505080637 10 196 3.2 11.3 0.00 0.00 0.00 89 1010.8
20260505080134 10 224 3.2 11.3 0.00 0.00 0.00 88 1010.7
20260505075634 10 269 3.2 6.4 0.00 0.00 0.00 88 1010.8
20260505075432 10 204 3.2 8.0 0.00 0.00 0.00 88 1010.7
20260505074633 10 240 3.2 8.0 0.00 0.00 0.00 88 1010.7
20260505074133 10 249 3.2 8.0 0.00 0.00 0.00 88 1010.8
20260505073634 10 231 3.2 9.7 0.00 0.00 0.00 87 1010.9
20260505073134 10 234 3.2 9.7 0.00 0.00 0.00 87 1010.9
20260505072632 10 249 4.8 8.0 0.00 0.00 0.00 87 1010.9
20260505072129 10 261 4.8 12.9 0.00 0.00 0.00 86 1010.9
20260505071928 10 246 4.8 12.9 0.00 0.00 0.00 86 1010.9
20260505071130 10 242 3.2 11.3 0.00 0.00 0.00 86 1010.8
20260505070631 10 238 3.2 8.0 0.00 0.00 0.00 86 1010.9
20260505070426 11 221 3.2 9.7 0.00 0.00 0.00 85 1010.9
20260505065630 11 253 3.2 9.7 0.00 0.00 0.00 85 1010.9
20260505065130 11 251 3.2 8.0 0.00 0.00 0.00 85 1010.9
20260505064628 11 234 3.2 8.0 0.00 0.00 0.00 84 1011.0
20260505064422 11 188 4.8 8.0 0.00 0.00 0.00 84 1011.0
20260505063629 11 233 4.8 9.7 0.00 0.00 0.00 84 1011.0
20260505063423 11 243 4.8 12.9 0.00 0.00 0.00 83 1011.0
20260505062626 11 179 4.8 14.5 0.00 0.00 0.00 83 1010.9
20260505062128 11 188 4.8 14.5 0.00 0.00 0.00 83 1010.9
20260505061626 11 217 4.8 19.3 0.00 0.00 0.00 83 1011.0
20260505061123 11 221 4.8 19.3 0.00 0.00 0.00 83 1011.0
20260505060935 11 229 4.8 16.1 0.00 0.00 0.00 83 1011.1
20260505060124 11 232 3.2 16.1 0.00 0.00 0.00 83 1011.1
20260505055623 11 211 3.2 8.0 0.00 0.00 0.00 83 1011.0
20260505055123 11 226 4.8 9.7 0.00 0.00 0.00 83 1010.9
20260505054921 11 217 4.8 14.5 0.00 0.00 0.00 82 1011.0
20260505054124 11 238 4.8 14.5 0.00 0.00 0.00 82 1011.0
20260505053624 11 242 4.8 11.3 0.00 0.00 0.00 82 1010.9
20260505053124 11 158 4.8 11.3 0.00 0.00 0.00 81 1010.9
20260505052623 11 231 4.8 11.3 0.00 0.00 0.00 81 1010.9
20260505052429 11 224 4.8 12.9 0.00 0.00 0.00 81 1010.9
20260505051623 11 241 4.8 12.9 0.00 0.00 0.00 81 1011.0
20260505051122 11 238 4.8 11.3 0.00 0.00 0.00 80 1011.1
20260505050618 11 160 4.8 12.9 0.00 0.00 0.00 80 1011.0
20260505050113 11 259 4.8 12.9 0.00 0.00 0.00 80 1011.0
20260505041604 11 236 4.8 11.3 0.00 0.00 0.00 79 1011.1
20260505041104 11 209 4.8 12.9 0.00 0.00 0.00 79 1011.1
20260505040603 11 207 4.8 14.5 0.00 0.00 0.00 78 1011.0
20260505040104 11 238 4.8 14.5 0.00 0.00 0.00 78 1011.0
20260505035604 11 264 4.8 17.7 0.00 0.00 0.00 78 1011.0
20260505035105 12 214 4.8 17.7 0.00 0.00 0.00 78 1011.1
20260505034605 12 135 4.8 12.9 0.00 0.00 0.00 77 1011.0
20260505034103 12 221 4.8 12.9 0.00 0.00 0.00 77 1011.0
20260505033903 12 254 4.8 12.9 0.00 0.00 0.00 77 1011.1
20260505033101 12 122 6.4 17.7 0.00 0.00 0.00 76 1011.0
20260505032603 12 224 4.8 17.7 0.00 0.00 0.00 76 1011.0
20260505032102 12 240 4.8 14.5 0.00 0.00 0.00 76 1010.9
20260505031601 12 167 4.8 16.1 0.00 0.00 0.00 76 1011.0
20260505031103 12 225 4.8 19.3 0.00 0.00 0.00 76 1011.1
20260505030601 12 229 4.8 19.3 0.00 0.00 0.00 76 1011.2
20260505030408 12 252 4.8 11.3 0.00 0.00 0.00 76 1011.2
20260505025859 12 229 4.8 11.3 0.00 0.00 0.00 76 1011.2
20260505025356 12 239 6.4 19.3 0.00 0.00 0.00 76 1011.2
20260505024903 12 227 6.4 19.3 0.00 0.00 0.00 76 1011.0
20260505024354 12 174 4.8 14.5 0.00 0.00 0.00 75 1011.0
20260505023602 12 240 4.8 11.3 0.00 0.00 0.00 75 1011.1
20260505023102 12 241 4.8 12.9 0.00 0.00 0.00 75 1011.2
20260505022601 12 143 4.8 16.1 0.00 0.00 0.00 75 1011.1
20260505022101 12 114 4.8 16.1 0.00 0.00 0.00 75 1011.2
20260505021603 12 220 6.4 17.7 0.00 0.00 0.00 74 1011.3
20260505021103 12 214 4.8 17.7 0.00 0.00 0.00 74 1011.2
20260505020603 12 221 4.8 12.9 0.00 0.00 0.00 74 1011.2
20260505015912 12 208 4.8 14.5 0.00 0.00 0.00 73 1011.2
20260505015104 12 198 4.8 14.5 0.00 0.00 0.00 72 1011.2
20260505014606 13 264 4.8 11.3 0.00 0.00 0.00 72 1011.1
20260505014106 13 229 4.8 12.9 0.00 0.00 0.00 72 1011.1
20260505013605 13 224 4.8 17.7 0.00 0.00 0.00 71 1011.0
20260505013104 13 247 6.4 20.9 0.00 0.00 0.00 70 1010.9
20260505012602 13 259 6.4 20.9 0.00 0.00 0.00 70 1010.9
20260505012358 13 229 6.4 16.1 0.00 0.00 0.00 70 1010.7
20260505011604 13 197 6.4 12.9 0.00 0.00 0.00 69 1010.7
20260505011356 13 219 4.8 17.7 0.00 0.00 0.00 69 1010.7
20260505010603 13 223 6.4 20.9 0.00 0.00 0.00 68 1010.6
20260505010103 13 248 6.4 20.9 0.00 0.00 0.00 68 1010.5
20260505005915 13 236 6.4 14.5 0.00 0.00 0.00 67 1010.4
20260505005102 13 230 6.4 16.1 0.00 0.00 0.00 66 1010.3
20260505004602 13 85 6.4 16.1 0.00 0.00 0.00 65 1010.3
20260505004356 13 214 6.4 20.9 0.00 0.00 0.00 64 1010.1
20260505003603 13 222 4.8 20.9 0.00 0.00 0.00 63 1009.9
20260505003102 14 146 6.4 17.7 0.00 0.00 0.00 62 1009.8
20260505002603 14 195 6.4 17.7 0.00 0.00 0.00 61 1009.6
20260505002103 14 154 4.8 17.7 0.00 0.00 0.00 61 1009.5
20260505001605 14 234 4.8 16.1 0.00 0.00 0.00 60 1009.5
20260505001102 14 170 6.4 19.3 0.00 0.00 0.00 60 1009.4
20260505000604 15 212 6.4 19.3 0.00 0.00 0.00 59 1009.4
20260504235603 15 214 6.4 25.7 0.00 0.00 0.00 58 1009.4
20260504235102 15 227 6.4 19.3 0.00 0.00 0.00 57 1009.3
20260504234602 15 238 6.4 19.3 0.00 0.00 0.00 56 1009.2
20260504234102 15 189 6.4 17.7 0.00 0.00 0.00 56 1009.1
20260504233602 15 193 8.0 22.5 0.00 0.00 0.00 55 1009.1
20260504233103 16 234 6.4 22.5 0.00 0.00 0.00 54 1008.9
20260504232604 16 220 4.8 16.1 0.00 0.00 0.00 54 1008.9
20260504232104 16 238 6.4 16.1 0.00 0.00 0.00 53 1008.8
20260504231944 16 238 6.4 12.9 0.00 0.00 0.00 53 1008.7
20260504230856 16 130 8.0 17.7 0.00 0.00 0.00 51 1008.5
20260504230107 17 154 6.4 17.7 0.00 0.00 0.00 51 1008.4
20260504225605 17 170 6.4 24.1 0.00 0.00 0.00 51 1008.3
20260504225108 17 210 6.4 24.1 0.00 0.00 0.00 50 1008.2
20260504224605 17 181 8.0 24.1 0.00 0.00 0.00 50 1008.1
20260504224107 17 250 8.0 24.1 0.00 0.00 0.00 49 1008.1
20260504223604 17 169 8.0 20.9 0.00 0.00 0.00 49 1008.0
20260504223104 18 240 8.0 30.6 0.00 0.00 0.00 49 1008.0
20260504222602 18 98 6.4 30.6 0.00 0.00 0.00 48 1007.7
20260504222102 18 238 6.4 27.4 0.00 0.00 0.00 48 1007.8
20260504221600 18 148 8.0 29.0 0.00 0.00 0.00 48 1007.8
20260504221053 18 229 8.0 29.0 0.00 0.00 0.00 47 1007.7
20260504220552 18 210 9.7 22.5 0.00 0.00 0.00 46 1007.7
20260504220053 18 225 9.7 30.6 0.00 0.00 0.00 46 1007.8
20260504215553 19 136 9.7 30.6 0.00 0.00 0.00 45 1007.7
20260504215348 19 243 9.7 24.1 0.00 0.00 0.00 44 1007.9
20260504214630 19 302 9.7 22.5 0.00 0.00 0.00 45 1007.9
20260504213554 20 196 8.0 20.9 0.00 0.00 0.00 44 1007.9
20260504213051 20 226 6.4 17.7 0.00 0.00 0.00 42 1007.6
20260504212552 20 205 8.0 25.7 0.00 0.00 0.00 43 1007.6
20260504212049 20 185 8.0 25.7 0.00 0.00 0.00 42 1007.5
20260504211549 20 191 8.0 22.5 0.00 0.00 0.00 42 1007.5
20260504211049 20 243 8.0 29.0 0.00 0.00 0.00 42 1007.5
20260504210549 20 160 9.7 29.0 0.00 0.00 0.00 42 1007.6
20260504210047 20 143 9.7 29.0 0.00 0.00 0.00 41 1007.5
20260504205546 20 230 8.0 29.0 0.00 0.00 0.00 41 1007.5
20260504205048 20 233 8.0 20.9 0.00 0.00 0.00 40 1007.5
20260504204544 20 211 8.0 25.7 0.00 0.00 0.00 40 1007.4
20260504204044 20 223 8.0 25.7 0.00 0.00 0.00 40 1007.6
20260504203544 20 129 6.4 17.7 0.00 0.00 0.00 40 1007.6
20260504203045 20 217 8.0 20.9 0.00 0.00 0.00 40 1007.7
20260504202842 20 221 8.0 25.7 0.00 0.00 0.00 40 1007.6
20260504202041 20 294 9.7 25.7 0.00 0.00 0.00 40 1007.5
20260504201542 20 240 8.0 22.5 0.00 0.00 0.00 39 1007.5
20260504201340 21 153 8.0 19.3 0.00 0.00 0.00 38 1007.6
20260504200837 21 184 8.0 29.0 0.00 0.00 0.00 38 1007.5
20260504200041 21 210 8.0 29.0 0.00 0.00 0.00 39 1007.5
20260504195538 21 240 6.4 20.9 0.00 0.00 0.00 37 1007.3
20260504195039 22 136 6.4 17.7 0.00 0.00 0.00 34 1007.4
20260504194539 21 232 6.4 17.7 0.00 0.00 0.00 33 1007.5
20260504194039 22 234 8.0 30.6 0.00 0.00 0.00 33 1007.4
20260504193835 21 184 9.7 30.6 0.00 0.00 0.00 33 1007.5
20260504193036 22 232 8.0 24.1 0.00 0.00 0.00 31 1007.4
20260504192536 22 224 8.0 24.1 0.00 0.00 0.00 32 1007.4
20260504192033 22 219 8.0 19.3 0.00 0.00 0.00 31 1007.5
20260504191533 21 215 8.0 20.9 0.00 0.00 0.00 32 1007.4
20260504191329 21 240 8.0 20.9 0.00 0.00 0.00 32 1007.5
20260504190531 21 102 6.4 19.3 0.00 0.00 0.00 32 1007.5
20260504190029 21 205 6.4 14.5 0.00 0.00 0.00 32 1007.6
20260504185529 22 263 6.4 17.7 0.00 0.00 0.00 31 1007.5
20260504185028 22 231 6.4 22.5 0.00 0.00 0.00 33 1007.6
20260504184528 22 238 6.4 22.5 0.00 0.00 0.00 32 1007.6
20260504184029 21 208 8.0 17.7 0.00 0.00 0.00 32 1007.4
20260504183529 21 137 9.7 30.6 0.00 0.00 0.00 33 1007.8
20260504183029 21 203 8.0 30.6 0.00 0.00 0.00 32 1007.7
20260504182527 21 229 6.4 20.9 0.00 0.00 0.00 32 1007.9
20260504182026 22 232 6.4 16.1 0.00 0.00 0.00 32 1007.9
20260504181524 21 190 6.4 14.5 0.00 0.00 0.00 33 1007.7
20260504181024 22 229 6.4 30.6 0.00 0.00 0.00 33 1007.8
20260504180842 21 223 6.4 30.6 0.00 0.00 0.00 32 1007.8
20260504180022 21 250 6.4 20.9 0.00 0.00 0.00 33 1007.9
20260504175518 21 224 8.0 22.5 0.00 0.00 0.00 32 1007.7
20260504175019 21 136 6.4 22.5 0.00 0.00 0.00 33 1007.9
20260504174552 21 152 6.4 12.9 0.00 0.00 0.00 32 1007.7
20260504173516 21 115 11.3 35.4 0.00 0.00 0.00 32 1007.8
20260504173018 21 250 9.7 29.0 0.00 0.00 0.00 32 1007.6
20260504172518 21 247 8.0 19.3 0.00 0.00 0.00 33 1007.7
20260504172016 21 250 6.4 19.3 0.00 0.00 0.00 33 1007.9
20260504171516 21 143 6.4 14.5 0.00 0.00 0.00 33 1007.7
20260504171014 21 233 8.0 25.7 0.00 0.00 0.00 34 1007.8
20260504170514 21 255 8.0 25.7 0.00 0.00 0.00 33 1007.9
20260504160304 20 32 8.0 22.5 0.00 0.00 0.00 38 1008.8
20260504151006 20 87 6.4 20.9 0.00 0.00 0.00 37 1009.2
20260504150504 20 243 4.8 14.5 0.00 0.00 0.00 37 1009.1
20260504141001 18 224 3.2 9.7 0.00 0.00 0.00 41 1010.0
20260504140504 17 225 3.2 12.9 0.00 0.00 0.00 45 1010.2
20260504130454 15 188 3.2 8.0 0.00 0.00 0.00 47 1010.6
20260504110450 8 232 1.6 4.8 0.00 0.00 0.00 62 1011.2